Location: Binningen
(47.7924°N, 8.7261°E)
Time: 23:16:04
(UTC+00:00)

Cosmos 2344 - Pass Details

Date: 17 May 2021
Orbit: 1239 x 3003 km, 63.3° (Epoch: 24 June)

Event Time Altitude Azimuth Distance (km) Brightness Sun altitude
Rises 22:26:00 0° 318° (NW) 4,517 7.5 -21.5°
Reaches altitude 10° 22:28:35 10° 319° (NW) 3,670 6.9 -21.6°
Maximum altitude 22:37:47 88° 232° (SW) 1,865 4.3 -22.0°
Enters shadow 22:46:12 25° 144° (SE) 3,668 5.4 -22.2°
